Location: Observatory
(52.1446°N, 0.4624°W)
Time: 14:09:21
(UTC+01:00)

ISS - Pass Details

Date: 13 October 2017
Orbit: 401 x 408 km, 51.6° (Epoch: 18 October)

Event Time Altitude Azimuth Distance (km) Brightness Sun altitude
Rises 19:03:33 0° 282° (WNW) 2,325 1.9 -8.7°
Reaches altitude 10° 19:05:47 10° 270° (W) 1,464 0.7 -9.1°
Maximum altitude 19:08:39 28° 210° (SSW) 792 -2.0 -9.5°
Drops below altitude 10° 19:11:31 10° 148° (SSE) 1,462 -1.3 -10.0°
Enters shadow 19:12:38 - 141° (SE) 1,879 -0.8 -10.1°
